Main page
METAR-TAF:

METAR-TAF

Airports :

Oil platform

Sleipner, Norway

latitude: 58-22-00N, longitude: 001-54-25E, elevation: 50 m

Current weather observation

The report was made 12 minutes ago, at 21:20 UTC
Wind 10 kt from the North
Temperature 5°C
Humidity 65%
Pressure 1018 hPa
Visibility 10 km or more
light drizzle

METAR: ENSL 112120Z AUTO 36010KT 9999NDV -DZ FEW025/// SCT033/// 05/M01 Q1018 W///S4

Time: 23:32 (21:32 UTC)


TAF: missing

Weather observations and forecasts of more than 4000 airports (METAR and TAF reports).

The available stations are represented by yellow and red dots on the map.

Hover mouse over dot to see the name of the station.

Then click to see weather observations and forecasts.

To change the map : click on the green buttons with a black cross to zoom in, on the green button with a dash to zoom out, or on the green arrows for adjacent maps.


METAR-TAF: